Theta_e
338 338 341 344 345 344 344 346 347 344 346 349 352 354 353 353 356 360 361 365 367 369 372 372 371 371 371 369 369 369 368 367 367 365 365 364 363 363 362 362 361 361 357 353 355 354 356 356 354 353 353 351 350 351 353 352 351 349 349 349 347 347 347
331 335 339 343 345 345 345 348 349 347 347 349 351 354 354 355 356 358 361 365 368 370 372 372 372 372 371 371 370 371 370 368 368 367 366 366 365 365 364 364 362 362 361 359 358 358 357 355 353 352 351 352 349 352 351 352 351 350 348 349 348 348 348
334 334 336 341 344 346 347 347 349 349 349 349 351 353 354 358 359 360 361 363 368 370 372 372 373 372 372 372 371 372 371 370 369 367 365 362 363 361 364 364 364 361 360 360 359 357 357 356 354 353 351 351 349 350 352 351 350 349 349 349 347 347 347
335 336 341 344 346 349 349 348 348 349 350 351 352 355 359 361 362 361 362 365 368 369 371 373 372 371 371 372 371 371 371 371 370 368 366 364 363 364 363 364 365 362 360 359 357 356 356 356 353 353 351 351 350 350 351 350 349 349 349 350 347 347 347
338 343 342 343 344 347 348 348 348 350 349 351 354 360 362 362 362 362 363 366 368 369 370 372 371 373 372 372 371 371 370 372 371 370 369 367 366 366 364 363 362 362 360 360 358 357 356 356 354 352 351 351 350 350 350 350 349 350 350 349 348 346 345
335 341 343 342 344 345 347 349 350 350 349 349 354 358 360 360 361 361 362 366 367 368 371 372 372 373 372 372 371 370 372 372 373 372 370 369 366 364 365 365 362 362 359 359 357 356 356 355 354 352 350 348 348 345 347 349 348 348 349 348 347 346 343
332 336 341 344 345 345 347 350 350 351 350 350 353 358 358 358 359 359 360 362 363 366 367 368 370 371 372 372 371 371 372 371 373 372 370 369 367 366 366 366 365 363 361 362 358 357 356 354 353 352 351 349 348 346 347 349 348 347 348 348 347 346 345
331 336 344 345 345 345 346 349 351 351 352 350 350 353 356 355 356 355 356 360 361 361 364 363 368 371 372 372 371 371 372 371 373 372 371 369 367 366 366 366 365 364 363 360 360 358 355 354 351 351 351 348 349 349 348 349 350 344 346 347 346 344 343
332 342 344 344 345 345 346 349 351 352 355 353 350 354 356 355 353 353 354 356 359 358 361 360 365 369 372 371 371 371 372 372 372 372 371 368 368 365 365 364 365 364 362 361 359 358 356 353 350 351 350 350 349 349 347 349 348 348 346 346 345 343 342
344 347 348 345 346 344 347 349 354 357 358 358 357 359 357 355 354 352 352 354 355 355 359 358 362 367 371 371 371 372 372 372 372 372 369 366 366 364 364 363 364 365 364 362 359 356 356 354 351 350 351 349 349 347 347 347 347 348 347 346 344 344 344
336 348 351 347 347 347 348 348 354 359 360 362 361 356 360 357 355 352 353 353 353 355 357 358 360 364 369 370 368 369 371 371 371 370 368 365 365 364 362 361 362 364 363 360 357 356 354 352 351 351 350 348 346 346 346 346 347 348 344 346 346 345 344
347 349 353 350 350 349 348 356 361 363 364 365 359 357 363 363 357 355 354 355 354 355 357 357 357 363 367 367 367 369 370 371 371 369 367 365 364 363 361 360 361 362 361 360 357 356 352 350 349 350 350 349 349 348 347 347 348 349 347 344 345 345 345
347 351 352 349 350 349 354 358 359 360 362 360 357 359 360 358 357 356 360 358 354 355 356 359 359 365 367 368 366 368 370 371 370 369 367 366 365 363 361 359 358 360 359 359 356 353 350 348 349 350 350 350 348 347 348 347 346 348 348 347 347 347 345
351 349 351 350 350 349 350 354 357 359 360 360 358 360 360 360 359 359 361 358 356 354 356 358 361 362 367 368 367 369 371 371 371 370 367 365 367 365 363 361 360 361 362 360 357 351 350 347 347 347 349 349 348 348 348 348 346 347 348 347 347 345 344
347 348 350 348 350 351 351 351 357 360 359 360 360 360 361 361 361 363 364 361 361 356 357 362 363 364 366 369 368 370 372 372 371 369 368 366 366 365 363 362 361 361 361 359 356 352 348 346 345 347 348 350 348 348 347 346 345 346 346 346 346 347 343
341 343 348 349 351 351 354 355 358 361 362 362 360 361 361 361 362 361 361 360 359 359 359 364 367 367 367 368 369 371 371 370 370 369 368 365 365 366 364 361 361 360 359 358 355 352 347 345 346 347 347 347 347 348 347 345 345 343 336 339 346 345 343
325 327 331 342 355 354 355 357 359 363 363 361 361 362 362 363 363 362 360 359 358 360 361 363 368 366 367 369 371 370 370 369 368 368 366 365 365 366 365 363 363 362 361 358 354 350 348 344 343 345 346 344 344 345 346 345 345 334 329 331 335 345 346
325 330 331 335 349 355 356 357 359 362 362 362 362 363 363 364 363 362 360 361 360 359 360 364 366 365 369 370 370 369 368 367 367 366 365 365 363 363 363 363 362 361 361 357 353 349 347 345 345 347 345 344 345 346 347 346 338 328 328 329 329 335 346
325 326 329 339 345 356 355 355 358 363 362 364 363 363 364 365 363 363 364 364 365 365 363 364 365 368 370 371 370 369 368 367 366 365 364 363 363 363 363 362 361 361 357 355 354 349 348 348 347 345 345 346 346 345 344 346 333 326 326 327 327 328 336
326 327 327 326 333 352 358 358 357 361 363 365 365 364 365 368 366 365 365 364 365 364 366 367 369 370 370 370 369 368 367 366 364 363 362 362 361 362 362 361 359 358 358 355 354 350 350 348 347 346 347 347 347 346 346 347 332 325 323 324 324 326 330
329 330 332 334 345 344 359 360 360 362 363 362 362 364 364 365 366 365 364 365 365 365 366 367 369 370 369 367 369 367 364 363 362 360 360 358 359 360 360 360 361 358 358 355 352 350 350 347 348 349 348 347 347 346 346 347 326 322 321 321 321 323 327
325 326 327 331 350 357 360 358 359 360 362 362 360 362 364 364 365 363 363 365 365 365 366 368 369 369 369 367 367 365 364 361 360 359 358 358 358 356 357 359 359 359 358 356 353 352 350 350 350 350 349 350 347 345 344 345 321 321 320 320 320 322 336
325 325 324 347 351 357 364 362 362 362 364 361 360 362 362 364 364 363 363 363 364 365 365 367 368 367 366 365 364 362 360 359 358 357 357 357 355 355 355 357 358 359 359 355 353 350 349 350 348 347 348 345 346 343 345 344 327 318 317 318 318 322 338
331 334 333 336 355 360 365 362 362 364 360 358 359 361 363 363 363 363 362 362 363 364 365 366 367 367 366 365 363 362 361 359 358 357 356 356 355 354 355 356 358 357 358 355 352 348 347 347 343 348 347 342 342 342 344 344 331 315 315 316 316 325 338
330 329 331 339 353 359 358 360 362 360 359 360 358 360 364 363 362 360 360 362 362 364 366 366 367 367 365 363 363 362 360 359 357 357 355 355 353 353 354 354 356 357 356 353 351 348 349 346 343 345 337 333 339 343 346 341 330 314 315 314 314 325 340
333 332 333 348 354 359 360 361 361 360 357 356 360 363 364 361 361 362 363 363 363 363 364 365 368 368 366 364 363 362 360 357 357 357 355 355 355 355 355 356 354 354 354 351 348 346 344 344 343 337 332 339 340 339 340 337 339 324 313 312 313 317 337
341 337 338 346 349 356 358 359 360 358 358 360 364 363 362 362 362 361 362 362 362 361 364 368 368 367 366 364 361 359 357 356 355 354 354 355 354 355 355 356 355 355 353 349 348 347 345 344 341 336 337 338 333 338 339 337 342 333 313 312 312 314 322
342 344 349 351 357 357 360 359 360 360 359 363 362 361 361 363 362 361 362 362 362 366 367 366 366 365 364 362 360 357 356 355 356 356 354 355 356 356 356 357 357 354 352 350 349 347 346 345 342 338 335 334 337 339 341 343 341 343 318 313 310 312 315
348 349 350 355 356 359 356 355 354 353 359 359 360 361 363 365 363 363 363 363 364 366 366 365 363 362 361 359 358 358 357 355 355 355 355 355 355 355 354 354 352 351 351 350 348 346 343 341 341 339 336 337 339 340 341 345 342 330 329 313 310 310 311
347 348 350 352 353 353 351 353 357 360 360 359 363 366 367 367 363 363 362 361 365 366 365 363 361 360 359 357 357 356 355 354 354 354 355 355 355 354 352 350 350 350 349 349 346 343 342 346 344 341 338 337 338 339 337 342 343 330 325 321 312 309 309
354 353 351 350 351 356 359 359 361 361 362 364 366 366 366 366 363 362 362 364 365 363 362 361 359 358 355 355 354 354 352 354 354 354 354 354 353 352 350 348 348 346 347 346 344 344 343 341 340 338 339 335 335 337 342 342 341 338 327 321 316 311 308
352 352 353 356 358 359 360 360 359 359 359 361 364 363 364 365 365 362 363 364 363 362 360 358 355 353 352 353 353 352 353 352 353 353 353 352 352 351 350 348 346 345 346 344 343 342 341 338 338 335 335 336 338 339 339 340 341 337 331 325 321 317 310
353 353 353 354 356 356 357 357 355 356 357 357 361 363 364 364 363 362 361 359 359 358 357 356 354 352 352 352 351 353 353 352 350 350 350 351 349 349 347 346 345 346 344 343 342 342 341 338 338 335 337 336 339 340 339 340 339 339 334 332 328 325 319
353 354 355 356 356 355 355 354 353 353 354 353 356 357 357 356 355 356 357 356 356 356 355 353 353 352 351 349 350 349 351 349 348 348 347 348 347 346 347 346 346 344 343 343 342 341 337 336 335 336 334 337 338 337 336 337 339 337 335 335 333 333 331
354 352 352 352 354 354 353 353 352 352 352 351 352 352 352 351 350 350 352 353 355 356 353 351 350 352 350 348 347 347 349 348 347 347 345 333 325 323 321 323 333 343 333 324 325 339 339 340 341 340 339 340 339 335 332 333 334 336 319 328 316 336 335
354 356 356 356 356 357 357 356 355 353 352 352 352 351 351 350 350 351 351 353 354 354 352 351 350 350 347 346 344 344 345 345 345 345 340 332 327 324 318 307 297 307 336 326 311 303 302 313 336 337 341 340 338 332 337 333 335 304 298 298 298 297 298
348 350 351 354 355 355 355 355 355 354 353 352 352 350 349 349 349 351 352 354 355 353 352 352 348 346 345 344 343 341 342 344 344 344 341 336 333 333 331 327 318 297 295 302 306 301 297 296 296 300 306 336 332 315 301 301 297 296 296 296 296 295 295
343 345 347 349 352 352 352 353 353 352 351 352 351 350 350 348 350 352 351 353 353 353 353 352 347 344 342 342 343 342 344 344 344 343 340 337 336 336 335 333 329 322 300 294 297 296 295 295 295 295 298 302 314 323 322 303 295 295 296 296 296 295 294
Wind_Speed
15 17 19 18 19 20 21 20 21 21 20 19 20 22 22 20 18 17 17 18 20 19 19 18 17 16 17 15 15 14 13 12 11 11 11 10 9 9 9 8 9 9 8 8 8 7 7 7 8 8 8 8 7 7 6 6 6 5 5 5 4 4 5
15 16 18 20 20 21 22 21 21 20 20 20 20 22 20 21 18 18 17 18 20 20 19 18 18 16 16 15 14 15 15 14 13 11 10 9 9 8 9 9 9 9 8 7 6 7 7 8 8 8 8 8 7 7 8 7 7 7 6 6 5 5 5
19 20 21 21 20 20 21 21 21 21 21 21 21 21 21 20 20 20 19 19 20 19 18 19 18 17 16 15 15 15 15 14 14 14 13 12 12 12 11 10 10 9 9 8 7 7 8 9 8 8 8 8 8 8 8 8 8 7 6 6 6 6 6
17 20 21 21 20 19 21 22 24 23 22 23 23 23 22 21 21 20 19 20 20 19 19 19 18 17 16 16 16 15 16 16 15 14 14 13 13 12 11 11 10 9 9 9 9 8 8 9 10 9 10 8 8 9 9 9 8 8 7 6 6 6 6
17 19 18 18 20 19 20 21 22 22 23 24 23 22 21 21 21 19 19 19 20 20 20 19 17 16 14 15 13 13 15 16 15 14 13 12 11 11 12 13 12 11 10 10 10 9 9 10 10 10 10 9 9 9 9 9 8 8 7 7 6 6 6
13 13 15 17 18 19 20 22 24 25 24 25 24 23 22 23 21 23 21 20 19 19 18 18 17 16 16 16 14 14 15 15 14 14 14 13 13 13 13 13 13 13 13 12 11 11 11 11 11 11 11 11 10 11 10 10 9 9 8 8 7 6 6
12 16 16 16 17 18 20 21 23 24 24 23 22 21 21 22 23 22 21 21 22 20 21 20 19 18 16 15 16 17 17 16 15 16 14 15 15 14 14 13 13 13 12 11 11 12 12 12 12 12 12 11 10 10 10 10 9 9 8 8 8 7 6
13 14 17 17 19 20 20 20 20 21 20 19 21 22 24 22 21 22 22 21 21 20 20 20 18 17 17 16 16 18 17 17 16 16 15 16 15 15 14 14 13 13 12 13 13 13 14 14 13 12 13 12 10 8 8 10 8 9 8 8 8 8 7
17 15 16 16 17 17 17 18 18 18 19 21 22 21 23 22 22 22 23 22 20 20 21 20 20 18 17 17 16 17 16 16 16 16 17 18 16 17 17 15 15 13 14 13 13 13 13 14 14 14 14 12 11 9 9 9 9 7 8 8 9 9 8
15 12 14 14 13 14 14 15 15 14 16 17 17 18 22 21 20 20 21 21 20 22 22 21 20 19 18 17 16 17 16 16 16 18 19 19 16 18 17 15 14 14 14 13 12 14 13 12 11 12 12 12 11 11 11 11 10 8 8 8 9 9 9
4 9 10 12 13 13 13 15 16 14 14 15 15 17 17 19 19 20 20 20 20 20 21 20 19 19 18 17 19 18 17 18 18 19 19 19 17 19 18 17 16 15 16 15 14 14 13 12 12 12 13 12 13 12 12 11 10 9 9 8 8 9 9
10 11 11 11 11 12 13 11 11 11 13 12 15 17 15 15 18 19 19 20 20 19 19 20 19 20 18 18 18 17 19 19 18 19 20 19 18 19 18 17 16 16 16 16 16 15 14 14 13 12 13 12 12 12 12 11 10 9 9 9 9 9 9
9 9 11 13 13 12 11 10 13 15 14 14 17 16 16 18 17 18 16 19 19 18 18 18 18 17 18 18 19 17 19 19 18 17 18 17 16 15 16 17 17 17 17 16 16 16 15 15 14 13 14 13 13 13 13 12 11 10 10 8 7 8 9
13 13 12 12 13 14 14 13 12 14 16 16 16 16 16 17 17 16 16 18 18 18 18 16 17 17 17 17 17 17 18 17 16 16 16 15 14 15 15 16 15 15 14 14 16 16 16 16 15 14 13 13 13 12 12 12 12 11 10 9 8 8 9
14 14 14 15 15 14 14 15 14 16 17 16 18 18 18 16 16 14 14 16 15 17 18 16 15 16 17 16 16 16 16 14 13 13 13 14 14 15 15 15 15 14 14 14 14 13 15 14 15 14 14 13 13 12 11 11 10 9 10 10 10 9 10
13 12 13 15 15 15 15 15 15 16 17 17 19 19 18 16 16 17 17 17 17 16 16 14 14 15 16 16 15 14 14 14 13 12 12 13 14 14 15 15 15 15 15 14 15 13 13 13 14 14 14 14 13 12 11 10 9 10 13 11 9 9 8
15 16 13 11 12 14 14 15 15 16 17 18 20 20 18 16 16 16 18 17 18 16 16 16 15 16 16 15 14 13 14 13 13 13 13 13 13 14 14 14 13 13 13 13 13 13 12 12 14 14 13 14 14 13 11 9 8 13 13 13 12 7 7
15 12 10 10 12 13 14 15 17 18 19 20 20 20 18 16 17 17 17 17 17 17 16 15 16 16 15 14 14 14 14 13 13 13 12 12 13 15 15 13 12 12 12 12 13 12 12 13 13 13 13 13 13 13 11 10 11 15 14 13 12 9 7
18 17 16 12 9 14 15 16 18 18 18 17 18 18 19 18 17 17 15 15 14 14 16 16 16 15 15 14 14 13 13 12 12 12 11 11 12 13 13 15 15 14 14 13 12 12 13 13 13 13 12 13 13 13 12 10 14 15 15 13 13 13 10
19 19 20 18 9 12 13 12 13 16 18 18 18 19 17 16 16 15 15 15 15 15 14 15 15 15 15 14 14 14 12 12 12 11 11 10 10 11 13 14 16 15 13 12 11 13 13 14 14 13 12 11 11 10 10 9 12 15 14 13 13 13 11
18 17 16 14 9 12 13 14 14 14 16 17 18 17 17 16 16 16 15 15 15 15 14 15 14 14 14 14 13 13 13 13 11 10 11 11 10 11 12 12 12 15 13 13 13 12 12 14 14 12 12 12 11 10 9 7 14 16 16 15 16 15 11
22 21 20 15 13 12 14 15 16 16 16 15 16 17 17 16 16 17 16 16 16 15 15 15 14 14 13 13 13 13 12 11 10 11 12 11 10 11 11 10 10 10 10 10 11 11 12 12 12 13 13 11 11 10 9 7 15 16 16 16 15 14 8
21 20 18 13 14 14 15 15 15 16 16 16 16 17 16 16 16 16 17 17 16 16 16 16 15 15 14 14 14 13 13 12 12 12 11 10 10 11 11 11 11 10 9 9 8 8 10 13 12 10 12 13 11 10 9 9 14 17 18 17 16 10 7
17 17 15 12 11 13 14 14 14 16 17 18 18 18 16 17 16 16 16 16 16 17 16 16 15 15 14 14 13 12 12 12 12 11 10 10 10 10 10 10 10 11 8 9 10 10 10 11 12 11 10 11 10 11 10 7 11 16 16 17 15 11 6
19 18 15 11 13 15 15 14 15 17 16 17 18 18 18 18 18 17 16 16 17 16 15 15 14 14 14 13 12 12 12 11 10 10 11 10 11 10 10 10 10 9 8 8 7 7 6 8 11 10 9 10 10 7 8 6 10 17 14 12 12 9 5
14 14 12 11 13 13 14 15 14 16 17 18 16 17 19 18 17 17 15 15 15 15 14 13 13 12 11 11 11 10 10 9 9 9 9 10 10 9 9 9 10 11 10 8 8 7 8 7 10 11 10 11 12 11 11 10 4 11 16 14 13 12 7
9 10 11 14 13 15 14 14 15 16 17 15 15 15 16 16 15 15 13 13 13 13 12 12 11 12 12 10 11 11 11 9 10 11 11 10 10 9 9 9 9 9 9 9 8 8 8 8 8 10 10 11 11 10 11 7 11 12 17 15 15 14 11
9 10 10 11 14 14 14 15 15 15 16 15 15 14 13 12 12 12 13 13 13 13 12 13 13 12 11 11 11 11 11 10 10 11 10 10 9 9 9 8 7 7 8 7 8 8 6 7 8 9 10 9 11 9 8 9 12 9 13 16 15 14 14
9 11 12 14 15 14 14 14 16 16 16 15 16 14 13 14 14 13 13 13 14 13 13 13 12 11 11 10 9 9 9 9 10 8 7 8 8 7 8 7 6 6 5 7 7 6 5 5 7 8 8 8 7 7 8 8 10 14 10 12 12 14 13
9 9 11 13 14 14 16 15 15 16 16 15 14 14 14 15 14 14 15 16 13 13 12 12 11 11 12 11 10 10 9 9 10 9 7 7 7 6 7 6 4 4 5 7 7 6 7 7 6 7 8 8 7 7 8 8 9 12 16 12 14 12 14
10 12 13 14 14 15 16 17 18 17 17 16 16 15 14 14 15 16 15 13 12 12 12 11 11 10 10 11 10 9 8 8 8 8 8 7 7 6 7 7 6 5 4 7 8 7 7 7 5 5 5 7 5 5 6 9 9 7 11 16 13 12 11
12 13 15 15 15 16 17 19 20 21 20 17 15 14 13 14 15 17 14 13 12 11 11 11 10 9 9 8 9 10 9 9 9 8 7 6 5 4 4 5 7 8 8 8 9 9 7 6 7 7 8 6 6 7 7 8 8 8 7 8 9 7 8
14 15 16 15 15 16 16 17 17 18 18 17 14 13 13 14 11 12 13 13 12 12 12 10 10 10 10 10 9 8 7 7 6 7 6 6 5 4 4 5 7 6 5 6 6 5 6 6 7 7 6 6 6 5 6 7 7 8 8 8 7 7 8
16 17 16 15 15 16 16 17 18 17 16 15 13 12 12 11 11 11 12 13 12 12 12 11 9 10 10 10 9 8 7 7 6 7 6 5 3 4 6 7 7 6 5 6 7 6 6 8 8 7 8 8 7 7 4 4 6 7 7 6 7 7 6
15 16 15 16 15 15 14 15 16 15 15 14 12 12 12 12 12 12 12 12 12 12 11 10 11 9 11 10 9 8 8 7 8 7 7 9 8 7 7 6 4 3 7 8 6 1 5 7 5 5 5 5 6 4 3 3 5 5 2 5 3 10 10
15 15 15 13 13 15 16 15 15 15 14 12 11 12 12 12 11 11 11 11 11 11 11 11 10 10 10 9 9 9 8 7 7 7 8 8 8 7 8 11 12 11 6 6 7 11 12 8 4 2 3 6 4 2 7 8 5 7 11 11 12 13 12
12 12 12 13 14 14 14 14 14 14 13 11 10 11 11 10 11 10 11 10 10 11 11 10 9 8 8 8 8 8 9 8 8 9 8 8 7 7 7 6 9 14 14 10 6 10 13 13 11 12 11 5 6 6 14 13 11 9 10 12 13 12 12
12 12 13 12 13 13 13 13 13 13 12 11 10 10 10 10 10 9 10 9 9 9 9 8 7 8 7 6 9 10 8 8 9 10 9 8 6 7 7 7 7 7 12 12 11 9 13 13 13 14 13 13 9 8 5 8 10 10 11 12 12 11 11
Wind_Direction
212 218 213 201 197 195 194 190 190 191 191 190 191 193 194 194 195 191 191 189 189 189 187 186 187 188 192 194 195 193 194 196 197 199 202 205 207 203 203 203 203 205 207 199 198 201 190 197 185 184 180 185 196 192 192 190 193 199 202 197 215 228 211
193 211 216 209 199 197 195 191 189 191 191 192 192 193 194 193 192 194 192 190 190 189 186 186 186 189 191 191 192 192 192 195 196 197 200 201 200 203 205 204 205 204 207 208 195 195 189 189 188 185 181 183 194 191 190 189 194 200 200 197 209 215 218
194 203 208 207 198 195 194 191 190 191 191 192 192 192 193 190 190 192 190 190 189 189 187 186 187 189 189 190 190 191 193 194 196 196 198 201 201 204 204 204 201 201 200 201 199 194 186 183 189 180 188 186 193 191 189 190 194 199 210 199 202 213 218
199 206 207 200 196 193 192 192 191 192 193 192 191 190 189 187 188 189 190 188 187 187 187 186 186 187 188 188 190 191 194 196 197 196 198 200 200 200 202 202 200 199 194 196 195 189 179 183 182 183 187 190 194 189 190 192 192 195 200 205 202 211 217
202 200 203 197 196 193 194 195 192 192 192 192 190 188 187 186 185 186 188 187 187 186 187 186 185 185 186 187 189 193 195 196 195 195 196 198 199 197 201 200 199 200 194 189 186 181 181 182 182 186 187 193 192 190 188 190 195 188 195 195 208 207 210
205 208 203 197 197 196 196 196 195 193 192 191 189 187 186 185 186 187 188 186 188 186 185 184 184 182 185 187 190 193 194 195 193 192 194 191 194 198 199 201 199 197 193 187 183 184 182 183 185 186 189 193 195 189 189 185 189 187 190 192 200 210 213
189 206 210 201 197 199 199 198 197 196 195 192 189 186 187 187 188 189 188 187 189 187 184 184 183 182 184 187 192 192 192 191 191 192 191 191 192 195 197 197 197 196 193 182 187 182 182 185 188 187 191 194 193 194 186 184 183 186 184 190 195 209 215
191 203 202 201 197 198 198 198 200 200 197 194 190 190 190 189 189 190 191 189 189 188 187 187 184 184 184 188 191 192 190 189 189 189 189 191 191 194 193 194 195 191 191 185 184 183 184 186 186 188 190 194 187 191 190 183 181 181 187 187 195 202 205
175 187 192 201 203 203 199 196 197 197 195 197 195 190 189 189 191 192 192 191 189 189 189 189 186 186 187 190 189 189 187 188 188 188 189 190 190 194 194 193 191 187 189 186 185 183 188 187 187 183 182 186 184 178 195 184 182 189 186 187 192 200 207
139 176 192 199 202 206 201 196 193 193 191 194 195 189 190 189 190 191 192 192 190 192 188 190 188 188 188 187 187 185 186 189 188 189 190 191 192 196 197 193 189 186 187 185 184 184 190 185 185 180 178 183 182 185 192 189 183 186 190 187 192 200 208
149 170 184 195 201 204 198 194 189 192 192 187 189 190 189 189 188 189 189 191 191 190 187 189 190 189 188 186 185 185 186 189 190 191 192 192 192 195 196 196 195 187 186 184 193 186 181 178 182 180 179 183 185 188 191 189 184 184 194 190 191 200 207
171 172 180 186 195 199 204 196 181 183 185 182 186 190 188 190 189 187 186 190 190 189 187 189 190 190 185 185 186 185 188 190 192 192 191 191 193 196 198 199 196 188 188 186 190 183 181 177 181 178 179 184 185 187 189 186 183 186 196 193 192 201 209
156 164 171 186 190 195 200 200 189 187 184 183 186 187 187 189 190 188 183 186 189 187 187 187 190 185 183 185 186 186 189 191 193 189 190 192 195 196 199 202 200 195 190 187 188 185 182 180 178 177 180 182 184 189 187 185 183 185 195 200 197 196 207
182 179 186 184 190 195 199 200 191 184 185 183 184 185 185 187 188 187 181 184 186 186 187 187 189 184 181 184 186 188 190 191 190 188 193 194 193 196 200 201 200 195 190 186 189 187 184 181 179 178 181 181 186 189 187 185 182 186 194 195 196 202 210
182 185 184 188 191 194 193 195 193 186 184 182 180 183 184 184 185 185 182 185 185 186 187 183 182 182 181 183 187 187 186 183 188 192 195 195 193 195 198 199 197 192 192 190 190 187 188 184 180 178 181 180 184 186 188 186 183 184 193 192 196 203 211
197 200 189 190 190 189 190 193 190 186 184 182 183 182 182 183 183 184 182 183 185 187 184 176 176 179 181 184 187 182 182 183 186 190 192 197 198 198 198 199 194 190 191 187 188 185 186 183 180 180 180 179 181 183 187 190 185 183 188 190 193 200 214
231 230 226 214 193 188 190 189 188 187 187 187 184 182 182 181 181 182 185 184 185 185 181 176 173 181 181 180 177 176 179 181 189 190 192 198 208 209 203 199 193 191 188 182 184 184 182 184 185 184 180 180 180 181 186 185 184 170 185 192 201 205 208
258 261 245 219 201 192 185 186 187 190 193 189 184 179 179 178 180 181 185 182 182 183 178 175 173 178 178 176 176 178 180 184 185 189 194 199 208 216 214 202 198 198 191 183 181 183 182 185 184 184 179 181 181 180 181 185 169 166 180 193 199 208 219
251 256 261 261 209 188 188 190 191 193 195 191 184 181 179 176 176 180 179 178 175 176 175 175 174 175 176 175 174 173 176 180 186 191 196 201 211 215 213 211 207 205 206 191 184 181 184 183 182 185 184 178 179 183 183 185 164 170 175 185 191 201 213
242 246 256 260 233 193 186 192 195 193 193 192 187 179 174 174 174 175 174 174 172 177 173 171 170 173 175 176 179 177 180 188 187 195 199 204 210 215 214 215 215 210 206 203 186 188 184 186 185 184 182 177 173 175 177 184 162 166 169 176 189 200 204
238 238 248 255 231 207 188 191 189 184 186 188 183 174 170 172 173 172 173 172 170 173 169 171 169 174 177 179 174 177 187 192 191 198 205 207 207 216 217 213 213 213 208 206 203 194 190 189 186 180 180 174 169 170 173 179 158 168 171 181 194 204 203
236 237 237 230 208 191 179 183 182 181 181 178 178 174 171 171 171 170 169 168 167 169 168 169 171 173 174 177 175 176 182 188 193 198 206 207 206 214 217 213 210 210 208 212 202 199 204 201 186 174 172 168 169 169 173 171 161 168 173 188 197 198 203
236 231 226 209 202 184 172 175 177 175 171 176 178 170 168 166 168 167 165 166 166 166 169 171 171 174 176 179 178 180 181 188 193 201 204 205 208 214 217 216 210 208 209 209 208 193 190 205 199 176 167 169 168 177 170 178 166 166 175 186 193 175 209
246 242 235 214 192 171 165 170 172 167 174 175 176 165 163 165 165 165 165 165 164 166 168 169 172 173 173 176 178 178 181 188 193 198 202 202 209 213 217 218 213 212 194 192 200 204 191 198 211 188 168 160 169 179 181 156 162 172 180 187 173 176 195
235 236 232 205 181 169 171 166 172 169 174 173 173 161 158 164 162 162 163 163 165 165 165 169 170 171 172 173 173 174 180 187 189 194 199 203 208 211 210 212 208 202 184 185 197 206 189 198 207 195 179 185 185 149 154 199 189 181 171 150 157 180 207
217 217 207 176 182 170 163 162 163 168 172 172 166 158 157 160 160 160 159 161 162 162 165 167 165 165 165 165 164 166 173 187 180 193 200 201 207 210 213 210 208 204 192 181 195 206 208 178 198 205 193 181 172 186 182 204 145 130 132 154 171 183 196
193 205 190 178 169 154 159 162 163 168 166 158 152 154 155 155 157 155 154 154 155 157 158 156 156 161 158 157 162 168 175 179 186 191 198 201 203 206 210 209 207 200 186 179 190 207 205 184 189 206 199 193 183 189 191 173 130 150 150 161 177 187 187
170 166 160 157 140 152 152 153 153 157 152 143 144 147 146 144 141 144 144 147 147 147 147 152 153 150 152 160 164 167 175 179 180 190 194 196 198 202 207 202 193 183 179 187 186 199 195 171 189 208 208 200 189 181 165 142 150 142 157 166 176 181 184
163 168 169 151 152 153 155 152 155 153 142 140 138 139 138 137 136 138 141 141 142 141 143 142 143 141 144 151 160 167 173 180 181 187 192 195 199 202 202 183 183 175 170 177 183 184 188 191 204 202 196 182 156 171 151 141 148 148 152 163 175 183 186
166 154 137 147 152 155 155 147 140 132 131 128 128 129 130 135 134 137 136 136 134 130 130 135 138 143 148 150 158 169 181 179 184 188 189 188 189 180 168 148 148 167 172 179 182 176 181 185 194 198 191 173 172 154 150 167 154 152 150 158 175 182 192
133 145 154 154 148 140 136 135 135 123 119 122 125 129 133 130 126 126 125 127 131 131 133 135 141 146 148 151 155 165 175 180 184 183 188 183 190 185 186 160 171 185 190 194 194 198 191 168 148 155 188 194 160 165 160 166 136 128 146 151 172 176 191
133 126 119 116 118 120 125 125 123 119 118 116 116 118 121 126 129 128 126 127 125 127 129 139 142 142 140 146 156 167 174 181 182 179 162 172 174 193 189 176 175 196 196 204 209 202 182 160 170 179 191 182 189 182 172 137 126 138 141 150 155 168 175
122 122 122 119 113 115 112 105 99 97 98 102 109 112 114 119 116 118 124 126 135 136 136 132 140 144 150 152 158 157 161 168 174 173 173 169 161 178 194 197 198 193 195 211 203 185 155 163 174 179 176 179 191 140 131 147 151 138 147 160 157 164 175
112 113 104 104 102 97 95 94 97 100 102 104 104 107 114 117 118 121 127 130 129 129 131 137 148 149 151 152 154 160 164 176 163 168 165 166 165 189 196 204 200 186 197 199 186 166 157 175 165 164 180 178 149 152 141 177 153 156 168 165 179 175 180
88 89 93 94 93 93 95 97 98 99 100 103 108 110 115 119 124 128 129 124 125 130 134 141 150 150 150 153 156 156 165 167 168 179 138 87 80 60 40 19 1 123 76 38 28 4 189 158 133 149 149 111 94 118 189 187 184 190 100 111 90 167 189
76 78 79 86 92 95 97 99 104 105 105 110 115 119 119 120 123 125 122 122 128 134 135 144 150 153 155 160 158 159 160 167 157 138 112 110 106 100 76 60 52 27 78 96 61 64 56 60 113 83 129 117 102 170 207 207 169 112 109 103 85 71 71
76 82 86 87 87 87 89 93 97 100 101 104 108 109 113 116 119 116 119 125 131 137 142 150 152 158 150 162 168 144 146 156 145 138 131 122 123 119 120 97 59 59 46 40 63 86 83 79 71 55 36 79 134 72 56 73 92 98 93 90 83 80 75
71 82 82 81 87 92 94 96 98 101 104 108 108 107 104 103 103 110 119 125 129 139 145 155 162 164 167 145 122 122 146 147 135 138 128 128 135 145 142 134 116 72 48 47 30 38 81 78 65 58 57 60 87 118 103 77 79 88 85 84 85 83 81